Regional Weather Roundup
Issued by NWS Lake Charles, LA

Current Version | Previous Version | Text Only | Print | Product List | Glossary On
Versions: 1 2 3 4 5 6 7 8 9 10 11 12 13 14 15 16 17 18 19 20 21 22 23 24 25 26 27 28 29 30 31 32 33 34 35 36 37 38 39 40 41 42 43 44 45 46 47 48 49 50
000
ASUS44 KLCH 291410
RWRLCH
RWRLCH
REGIONAL WEATHER ROUNDUP
NATIONAL WEATHER SERVICE LAKE CHARLES LA
900 AM CDT FRI AUG 29 2014

Note: "fair" indicates few or no clouds below 12,000 feet with no
significant weather and/or obstructions to visibility.


ACROSS SOUTHEAST TEXAS

CITY           SKY/WX    TMP DP  RH WIND       PRES   REMARKS
BEAUMONT       SUNNY     84  77  79 E14       29.90R
BEAUMONT CITY  PTSUNNY   82  77  85 E5        29.91R
ORANGE         MOSUNNY   82  82 100 E7        29.92S
JASPER         SUNNY     76  72  89 SE6       29.95R
$$

ACROSS CENTRAL LOUISIANA

CITY           SKY/WX    TMP DP  RH WIND       PRES   REMARKS
LEESVILLE      SUNNY     80  73  79 SE7       29.94R
FULLERTON        N/A     82  73  74 CALM      29.91F
ALEXANDRIA INT SUNNY     82  74  76 E5        29.92F
ESLER FIELD    SUNNY     82  75  79 E5        29.95S
DERIDDER         N/A     79  73  83 CALM      29.96R HAZE
OAKDALE        MOSUNNY   81  75  83 SE6       29.95R
OPELOUSAS        N/A     80  74  82 SE10      29.94R
$$

ACROSS SOUTHWEST AND SOUTH CENTRAL LOUISIANA

CITY           SKY/WX    TMP DP  RH WIND       PRES   REMARKS
SULPHUR        SUNNY     83  77  81 E9        29.92F
LAKE CHARLES   SUNNY     80  75  84 E9        29.91S
CHENNAULT INT  SUNNY     81  73  78 E7        29.93R
CAMERON PHI    MOSUNNY   81  77  89 S17G24    29.94R
DEQUINCY       CLOUDY    78  74  88 E3        29.93S
JENNINGS         N/A     80  75  84 E8        29.92F
LAFAYETTE      SUNNY     81  75  82 E5        29.94R
NEW IBERIA     SUNNY     82  76  81 E8        29.94R
ABBEVILLE        N/A     81  77  87 E6        29.95R
PATTERSON        N/A     81  77  89 E8        29.96S
SALT POINT       N/A     83  78  85 VRB5      29.93R
$$

SELECTED SITES ACROSS THE REGION

CITY           SKY/WX    TMP DP  RH WIND       PRES   REMARKS
HOUSTON BUSH   MOSUNNY   82  77  83 E6        29.90S
HOUSTON HOBBY  CLOUDY    84  75  74 SE8       29.89R
GALVESTON      PTSUNNY   83  75  77 SE10      29.88S
COLLEGE STAT   PTSUNNY   79  75  87 E6        29.90F
CONROE         SUNNY     80  75  84 VRB3      29.91F
HUNTSVILLE     MOSUNNY   81  76  84 CALM      29.91F
LUFKIN         SUNNY     82  74  76 SE7       29.92F
SHREVEPORT     MOSUNNY   82  73  74 CALM      29.94F
MONROE         SUNNY     80  74  81 CALM      29.97F
NATCHEZ MS     MOSUNNY   81  73  78 E3        29.97S
BATON ROUGE    SUNNY     82  74  76 NE3       29.95R
N.O. INTL ARPT PTSUNNY   86  75  69 E7        29.94R
SLIDELL        SUNNY     83  74  74 VRB3      29.95R
$$

MARINE REPORTS

STATION/POSITION TIME  TEMP    WIND        PRES    VSBY  WAVE
                       AIR SEA DIR/SP/G                  HT/PER
                 (UTC) (F)     (DEG/KT/KT) (MB)    (MI)  (FT/S)
BUOY 30 S HIGH I 1400   82 86  110/ 14/ 16 1011.1R         4/ 5
SEA RIM ST PARK  1400   81     140/ 21/ 26 1012.9R
PORT ARTHUR      1400      86   90/  7/ 10 1012.4S
SABINE PASS N    1400   82 85  100/ 11/ 15 1012.3S
TEXAS POINT      1400   80 84  140/ 21/ 29 1012.2F
CALCASIEU PASS   1400   80 83  120/  9/ 15 1014.1R
LK CHARLES BEACH 1400   81 88              1013.8S
MARSH ISLAND     NOT AVBL
FRESH WATER LOCK 1400   81 83   50/  6/ 11 1013.1R
AMERADA PASS     1400   80 84   90/  5/ 10 1013.7R
$$


USA.gov is the U.S. government's official web portal to all federal, state and local government web resources and services.